Back to catalog

CZ-4 DEB

AliveSSO
NORAD 26234·DEBRIS·🇨🇳 China

Launched Oct 14, 1999 from Taiyuan Satellite Launch Center

Loading…

Next Passes (next 24 hours)

TLE

FreshSource: Space-Track

Epoch: Sep 14, 2026, 13:53 UTC

1 26234U 99057DY  26257.57901916  .00000403  00000-0  10323-3 0  9996
2 26234  98.6182  20.0796 0010842 359.1471  62.3264 14.55761187403322

Track CZ-4 DEB in real time with AllMySat

Download on the App Store